FW5225 Weather Reports


time (UTC)temp
F
wind
direction
speed
knots
gust
knots
rain 1hr
in
rain 24hr
in
rain mn
in
humidity
%
barometer
mb
20260510113006 76 56 0.9 2.6 0.00 0.00 0.00 16 1006.1
20260510112508 76 46 0.9 1.7 0.00 0.00 0.00 17 1006.1
20260510112006 75 323 0.0 1.7 0.00 0.00 0.00 18 1006.1
20260510111508 75 317 0.0 2.6 0.00 0.00 0.00 17 1006.0
20260510111004 76 316 0.9 2.6 0.00 0.00 0.00 21 1006.0
20260510110502 76 52 0.0 1.7 0.00 0.00 0.00 21 1005.9
20260510110006 76 38 0.0 1.7 0.00 0.00 0.00 18 1005.9
20260510105601 77 32 0.0 0.9 0.00 0.00 0.00 18 1005.8
20260510105059 77 312 0.0 1.7 0.00 0.00 0.00 21 1005.8
20260510104559 77 312 0.0 1.7 0.00 0.00 0.00 18 1005.6
20260510104100 77 32 0.0 1.7 0.00 0.00 0.00 16 1005.7
20260510103556 78 20 0.0 1.7 0.00 0.00 0.00 21 1005.7
20260510103056 78 237 0.0 1.7 0.00 0.00 0.00 15 1005.6
20260510102556 78 252 0.0 0.0 0.00 0.00 0.00 16 1005.7
20260510102054 79 225 0.0 0.9 0.00 0.00 0.00 19 1005.7
20260510101559 79 225 0.0 0.9 0.00 0.00 0.00 18 1005.7
20260510101051 80 293 0.0 0.9 0.00 0.00 0.00 17 1005.7
20260510100554 80 293 0.0 1.7 0.00 0.00 0.00 19 1005.7
20260510100112 81 293 0.9 1.7 0.00 0.00 0.00 17 1005.7
20260510095551 81 244 0.0 2.6 0.00 0.00 0.00 15 1005.7
20260510095046 81 116 0.0 2.6 0.00 0.00 0.00 14 1005.7
20260510094545 82 163 0.0 2.6 0.00 0.00 0.00 15 1005.7
20260510094044 82 196 0.0 7.0 0.00 0.00 0.00 16 1005.5
20260510093543 82 84 3.5 8.7 0.00 0.00 0.00 14 1005.3
20260510093048 84 67 6.1 8.7 0.00 0.00 0.00 14 1005.3
20260510092540 87 63 3.5 7.0 0.00 0.00 0.00 14 1005.2
20260510092038 89 61 4.3 8.7 0.00 0.00 0.00 12 1005.1
20260510091539 89 312 3.5 8.7 0.00 0.00 0.00 11 1005.0
20260510091037 90 283 3.5 7.0 0.00 0.00 0.00 11 1005.0
20260510090537 89 319 3.5 7.8 0.00 0.00 0.00 11 1004.8
20260510090038 90 261 4.3 7.8 0.00 0.00 0.00 11 1004.8
20260510085537 90 281 3.5 10.4 0.00 0.00 0.00 11 1004.8
20260510085036 90 254 5.2 10.4 0.00 0.00 0.00 11 1004.8
20260510084537 90 289 6.1 10.4 0.00 0.00 0.00 11 1004.7
20260510084036 90 275 4.3 13.0 0.00 0.00 0.00 10 1004.8
20260510083536 90 294 6.1 13.0 0.00 0.00 0.00 11 1004.8
20260510083044 90 293 6.1 11.3 0.00 0.00 0.00 11 1004.7
20260510082535 90 333 6.1 12.2 0.00 0.00 0.00 11 1004.7
20260510082035 90 274 3.5 11.3 0.00 0.00 0.00 12 1004.8
20260510081539 90 292 6.1 10.4 0.00 0.00 0.00 11 1004.8
20260510081036 90 317 7.0 10.4 0.00 0.00 0.00 12 1004.7
20260510080536 90 308 7.0 13.9 0.00 0.00 0.00 11 1004.7
20260510080036 90 295 7.0 13.9 0.00 0.00 0.00 11 1004.7
20260510075536 90 304 5.2 12.2 0.00 0.00 0.00 12 1004.8
20260510075033 89 302 6.1 11.3 0.00 0.00 0.00 12 1004.8
20260510074534 90 297 6.1 11.3 0.00 0.00 0.00 11 1004.9
20260510074032 90 277 7.0 11.3 0.00 0.00 0.00 11 1004.9
20260510073532 90 292 6.1 13.0 0.00 0.00 0.00 11 1004.9
20260510073031 90 285 4.3 13.0 0.00 0.00 0.00 12 1004.9
20260510072531 90 319 7.8 13.0 0.00 0.00 0.00 11 1005.0
20260510072032 90 305 6.1 12.2 0.00 0.00 0.00 11 1004.9
20260510071537 90 248 6.1 11.3 0.00 0.00 0.00 12 1004.8
20260510071028 90 307 6.1 12.2 0.00 0.00 0.00 11 1004.9
20260510070528 91 272 6.1 12.2 0.00 0.00 0.00 11 1004.9
20260510070027 91 287 6.1 11.3 0.00 0.00 0.00 11 1004.8
20260510065527 91 292 6.1 14.8 0.00 0.00 0.00 10 1004.8
20260510065026 92 346 8.7 16.5 0.00 0.00 0.00 10 1004.8
20260510064526 91 310 8.7 13.0 0.00 0.00 0.00 10 1004.7
20260510064026 91 275 7.8 13.0 0.00 0.00 0.00 11 1004.8
20260510063530 91 280 6.1 14.8 0.00 0.00 0.00 9 1004.8
20260510063027 91 322 5.2 14.8 0.00 0.00 0.00 10 1004.7
20260510062526 91 290 7.8 12.2 0.00 0.00 0.00 9 1004.7
20260510062025 91 259 6.1 13.0 0.00 0.00 0.00 9 1004.7
20260510061538 92 318 7.8 13.9 0.00 0.00 0.00 9 1004.7
20260510061027 92 284 7.8 13.9 0.00 0.00 0.00 8 1004.7
20260510060524 91 266 7.8 13.9 0.00 0.00 0.00 8 1004.5
20260510060025 91 288 7.0 13.0 0.00 0.00 0.00 9 1004.6
20260510055524 91 280 7.0 12.2 0.00 0.00 0.00 10 1004.6
20260510055024 91 296 6.1 12.2 0.00 0.00 0.00 9 1004.6
20260510054524 92 289 5.2 12.2 0.00 0.00 0.00 10 1004.6
20260510054024 91 309 7.0 13.0 0.00 0.00 0.00 9 1004.6
20260510053524 91 331 7.0 13.0 0.00 0.00 0.00 10 1004.6
20260510053024 91 285 6.1 13.0 0.00 0.00 0.00 11 1004.5
20260510052528 92 273 6.1 12.2 0.00 0.00 0.00 10 1004.5
20260510052023 92 310 5.2 9.6 0.00 0.00 0.00 10 1004.6
20260510051523 92 299 5.2 11.3 0.00 0.00 0.00 10 1004.6
20260510051023 92 293 6.1 13.0 0.00 0.00 0.00 10 1004.6
20260510050527 92 285 7.0 13.0 0.00 0.00 0.00 9 1004.6
20260510050022 93 291 5.2 11.3 0.00 0.00 0.00 9 1004.7
20260510045522 93 262 4.3 10.4 0.00 0.00 0.00 10 1004.5
20260510045022 93 259 5.2 10.4 0.00 0.00 0.00 10 1004.5
20260510044523 93 294 4.3 10.4 0.00 0.00 0.00 9 1004.5
20260510044025 93 278 5.2 12.2 0.00 0.00 0.00 9 1004.4
20260510043522 93 275 4.3 8.7 0.00 0.00 0.00 10 1004.4
20260510043023 93 247 4.3 7.8 0.00 0.00 0.00 10 1004.3
20260510042521 93 292 1.7 7.0 0.00 0.00 0.00 9 1004.2
20260510042025 93 292 3.5 8.7 0.00 0.00 0.00 9 1004.2
20260510041522 93 309 5.2 9.6 0.00 0.00 0.00 9 1004.2
20260510041021 93 298 3.5 9.6 0.00 0.00 0.00 9 1004.1
20260510040521 93 295 2.6 9.6 0.00 0.00 0.00 10 1004.2
20260510040020 93 254 4.3 9.6 0.00 0.00 0.00 10 1004.1
20260510035520 93 234 3.5 9.6 0.00 0.00 0.00 10 1004.0
20260510035022 93 259 4.3 9.6 0.00 0.00 0.00 9 1004.0
20260510034520 94 259 3.5 8.7 0.00 0.00 0.00 9 1003.9
20260510034021 94 253 2.6 8.7 0.00 0.00 0.00 9 1003.8
20260510033521 94 256 3.5 8.7 0.00 0.00 0.00 9 1003.7
20260510033019 94 228 3.5 8.7 0.00 0.00 0.00 9 1003.7
20260510032519 94 219 2.6 8.7 0.00 0.00 0.00 9 1003.7
20260510032020 94 240 4.3 8.7 0.00 0.00 0.00 9 1003.6
20260510031535 94 262 4.3 8.7 0.00 0.00 0.00 9 1003.5
20260510031019 95 256 2.6 7.8 0.00 0.00 0.00 9 1003.4
20260510030518 95 258 2.6 8.7 0.00 0.00 0.00 9 1003.4
20260510030022 95 271 2.6 8.7 0.00 0.00 0.00 9 1003.4
20260510025518 95 290 4.3 8.7 0.00 0.00 0.00 9 1003.3
20260510025018 95 279 3.5 7.8 0.00 0.00 0.00 9 1003.2
20260510024532 95 292 3.5 6.1 0.00 0.00 0.00 9 1003.1
20260510024017 95 283 1.7 7.8 0.00 0.00 0.00 9 1003.0
20260510023517 96 292 3.5 7.8 0.00 0.00 0.00 9 1003.0
20260510023017 96 291 2.6 6.1 0.00 0.00 0.00 9 1002.9
20260510022522 96 293 1.7 7.0 0.00 0.00 0.00 9 1002.9
20260510022017 96 279 2.6 7.0 0.00 0.00 0.00 9 1002.9
20260510021521 96 295 0.9 6.1 0.00 0.00 0.00 9 1002.8
20260510021016 97 272 1.7 7.0 0.00 0.00 0.00 8 1002.8
20260510020516 97 305 1.7 6.1 0.00 0.00 0.00 8 1002.8
20260510020016 97 244 0.9 4.3 0.00 0.00 0.00 9 1002.7
20260510015515 98 120 0.9 6.1 0.00 0.00 0.00 8 1002.8
20260510015015 98 224 2.6 7.8 0.00 0.00 0.00 8 1002.7
20260510014517 99 216 2.6 7.0 0.00 0.00 0.00 8 1002.7
20260510014015 99 321 2.6 7.0 0.00 0.00 0.00 8 1002.7
20260510013517 100 208 0.9 7.0 0.00 0.00 0.00 8 1002.6
20260510013015 100 280 1.7 7.0 0.00 0.00 0.00 8 1002.6
20260510012515 100 259 2.6 7.0 0.00 0.00 0.00 8 1002.6
20260510012015 101 254 0.9 6.1 0.00 0.00 0.00 8 1002.7
20260510011515 101 207 0.9 6.1 0.00 0.00 0.00 8 1002.5
20260510011014 101 209 2.6 6.1 0.00 0.00 0.00 8 1002.6
20260510010514 101 292 0.9 7.8 0.00 0.00 0.00 9 1002.6
20260510010013 102 267 0.9 7.8 0.00 0.00 0.00 8 1002.6
20260510005513 102 203 0.9 7.0 0.00 0.00 0.00 8 1002.6
20260510005013 102 194 1.7 7.0 0.00 0.00 0.00 8 1002.7
20260510004512 102 182 2.6 9.6 0.00 0.00 0.00 8 1002.7
20260510004012 102 227 0.9 9.6 0.00 0.00 0.00 8 1002.6
20260510003512 103 216 1.7 6.1 0.00 0.00 0.00 8 1002.6
20260510003026 103 182 0.9 6.1 0.00 0.00 0.00 7 1002.7
20260510002516 103 300 0.9 6.1 0.00 0.00 0.00 8 1002.7
20260510002011 103 190 0.9 7.0 0.00 0.00 0.00 8 1002.8
20260510001515 103 223 2.6 9.6 0.00 0.00 0.00 8 1002.8
20260510001011 103 267 3.5 9.6 0.00 0.00 0.00 8 1002.7
20260510000510 103 240 0.9 7.0 0.00 0.00 0.00 8 1002.8
20260510000009 103 214 1.7 6.1 0.00 0.00 0.00 8 1002.9
20260509235508 104 300 0.9 9.6 0.00 0.00 0.00 8 1003.0
20260509235008 104 153 2.6 9.6 0.00 0.00 0.00 8 1002.9
20260509234521 104 227 1.7 6.1 0.00 0.00 0.00 8 1003.0
20260509234009 103 157 1.7 4.3 0.00 0.00 0.00 8 1003.0
20260509233507 103 261 0.9 7.0 0.00 0.00 0.00 8 1003.0
20260509233009 103 207 1.7 8.7 0.00 0.00 0.00 8 1003.1
20260509232507 103 259 5.2 8.7 0.00 0.00 0.00 7 1003.1
20260509232006 104 295 1.7 5.2 0.00 0.00 0.00 8 1003.2
20260509231506 104 221 1.7 6.1 0.00 0.00 0.00 8 1003.1
20260509231007 104 237 1.7 6.1 0.00 0.00 0.00 8 1003.2
20260509230505 104 278 2.6 6.1 0.00 0.00 0.00 8 1003.2
20260509230011 104 249 1.7 7.8 0.00 0.00 0.00 8 1003.3
20260509225505 104 166 1.7 7.0 0.00 0.00 0.00 8 1003.3
20260509225005 104 215 2.6 7.0 0.00 0.00 0.00 8 1003.3
20260509224503 103 326 2.6 6.1 0.00 0.00 0.00 8 1003.4
20260509224002 104 225 1.7 7.8 0.00 0.00 0.00 8 1003.6
20260509223502 103 209 3.5 9.6 0.00 0.00 0.00 8 1003.6
20260509223001 103 242 3.5 10.4 0.00 0.00 0.00 8 1003.7
20260509222600 103 264 3.5 10.4 0.00 0.00 0.00 9 1003.7
20260509222102 104 236 1.7 7.0 0.00 0.00 0.00 9 1003.8
20260509221559 104 259 1.7 9.6 0.00 0.00 0.00 9 1003.9
20260509221101 103 202 1.7 9.6 0.00 0.00 0.00 8 1004.0
20260509220558 104 280 2.6 9.6 0.00 0.00 0.00 9 1004.0
20260509220057 104 265 3.5 8.7 0.00 0.00 0.00 9 1004.0
20260509215557 104 271 1.7 7.0 0.00 0.00 0.00 8 1004.1
20260509215056 104 215 1.7 7.0 0.00 0.00 0.00 9 1004.2
20260509214556 104 221 2.6 6.1 0.00 0.00 0.00 9 1004.4
20260509214055 104 211 1.7 8.7 0.00 0.00 0.00 9 1004.4
20260509213553 104 250 3.5 8.7 0.00 0.00 0.00 9 1004.5
20260509213058 104 211 0.9 5.2 0.00 0.00 0.00 9 1004.6
20260509212552 103 202 2.6 6.1 0.00 0.00 0.00 9 1004.7
20260509212050 103 235 1.7 6.1 0.00 0.00 0.00 9 1004.7
20260509211554 102 141 0.9 8.7 0.00 0.00 0.00 9 1004.8
20260509211049 102 268 4.3 9.6 0.00 0.00 0.00 9 1004.9
20260509210548 102 241 2.6 12.2 0.00 0.00 0.00 10 1005.0
20260509210051 103 261 5.2 12.2 0.00 0.00 0.00 10 1005.1
20260509205546 103 274 2.6 7.8 0.00 0.00 0.00 10 1005.1
20260509205046 103 247 1.7 6.1 0.00 0.00 0.00 10 1005.2
20260509204544 102 187 2.6 7.8 0.00 0.00 0.00 10 1005.3
20260509204044 102 252 1.7 7.8 0.00 0.00 0.00 10 1005.4
20260509203543 102 323 3.5 7.8 0.00 0.00 0.00 9 1005.5
20260509203043 102 279 1.7 6.1 0.00 0.00 0.00 10 1005.5
20260509202542 102 247 2.6 7.0 0.00 0.00 0.00 10 1005.6
20260509202042 102 189 1.7 6.1 0.00 0.00 0.00 9 1005.6
20260509201542 102 248 3.5 7.0 0.00 0.00 0.00 10 1005.7
20260509201043 102 165 0.9 4.3 0.00 0.00 0.00 9 1005.8
20260509200544 102 221 2.6 7.0 0.00 0.00 0.00 9 1005.9
20260509200041 101 236 1.7 7.0 0.00 0.00 0.00 10 1005.9
20260509195540 101 187 0.9 7.0 0.00 0.00 0.00 10 1006.0
20260509195038 101 252 0.9 6.1 0.00 0.00 0.00 11 1006.1
20260509194539 101 296 1.7 6.1 0.00 0.00 0.00 11 1006.1
20260509194039 101 223 0.9 5.2 0.00 0.00 0.00 10 1006.2
20260509193539 101 230 1.7 5.2 0.00 0.00 0.00 10 1006.3
20260509193039 101 155 1.7 6.1 0.00 0.00 0.00 11 1006.2
20260509192539 100 190 1.7 7.8 0.00 0.00 0.00 11 1006.4
20260509192037 101 207 2.6 5.2 0.00 0.00 0.00 11 1006.4
20260509191536 100 207 0.9 5.2 0.00 0.00 0.00 11 1006.4
20260509191034 100 225 1.7 5.2 0.00 0.00 0.00 11 1006.6
20260509190534 100 78 0.9 7.0 0.00 0.00 0.00 11 1006.6
20260509190038 99 224 0.9 7.0 0.00 0.00 0.00 11 1006.7
20260509185534 99 87 1.7 6.1 0.00 0.00 0.00 10 1006.8
20260509185032 99 168 0.9 6.1 0.00 0.00 0.00 11 1006.8
20260509184534 99 180 0.9 6.1 0.00 0.00 0.00 12 1006.8
20260509184028 98 222 1.7 5.2 0.00 0.00 0.00 11 1006.9
20260509183527 97 187 1.7 5.2 0.00 0.00 0.00 11 1007.0
20260509183028 97 156 0.9 6.1 0.00 0.00 0.00 12 1007.1
20260509182525 97 210 1.7 6.1 0.00 0.00 0.00 12 1007.2
20260509182024 96 212 1.7 4.3 0.00 0.00 0.00 12 1007.2
20260509181539 96 150 0.9 4.3 0.00 0.00 0.00 11 1007.3
20260509181024 96 195 0.9 3.5 0.00 0.00 0.00 12 1007.4
20260509180523 95 277 0.9 7.0 0.00 0.00 0.00 12 1007.5
20260509180019 95 222 0.9 7.0 0.00 0.00 0.00 13 1007.5
20260509175518 95 90 1.7 6.1 0.00 0.00 0.00 13 1007.6
20260509175018 95 165 0.9 4.3 0.00 0.00 0.00 13 1007.7
20260509174516 94 107 1.7 4.3 0.00 0.00 0.00 13 1007.7
20260509174016 94 223 0.9 3.5 0.00 0.00 0.00 13 1007.7
20260509173514 94 155 0.9 2.6 0.00 0.00 0.00 14 1007.7
20260509173018 94 252 0.9 2.6 0.00 0.00 0.00 13 1007.8
20260509172512 94 165 0.9 2.6 0.00 0.00 0.00 14 1007.8
20260509172011 93 304 0.9 2.6 0.00 0.00 0.00 13 1007.9
20260509171510 93 172 0.0 2.6 0.00 0.00 0.00 14 1007.9
20260509171009 93 200 0.0 2.6 0.00 0.00 0.00 13 1007.9
20260509170507 92 68 0.0 2.6 0.00 0.00 0.00 15 1008.0
20260509170005 92 153 0.0 2.6 0.00 0.00 0.00 14 1008.0
20260509165504 92 184 0.0 1.7 0.00 0.00 0.00 15 1007.9
20260509165004 92 242 0.0 1.7 0.00 0.00 0.00 15 1008.0
20260509164501 91 121 0.0 2.6 0.00 0.00 0.00 14 1008.0
20260509164100 91 204 0.0 2.6 0.00 0.00 0.00 15 1007.9
20260509163559 90 173 0.0 2.6 0.00 0.00 0.00 15 1008.0
20260509163101 90 229 0.0 1.7 0.00 0.00 0.00 16 1008.0
20260509162556 90 86 0.0 1.7 0.00 0.00 0.00 15 1007.9
20260509162055 90 88 0.0 1.7 0.00 0.00 0.00 15 1007.9
20260509161553 89 184 0.0 1.7 0.00 0.00 0.00 15 1007.9
20260509161052 89 155 0.0 1.7 0.00 0.00 0.00 16 1007.9
20260509160551 89 183 0.0 1.7 0.00 0.00 0.00 16 1008.0
20260509160050 88 156 0.9 1.7 0.00 0.00 0.00 15 1007.9
20260509155548 88 314 0.0 1.7 0.00 0.00 0.00 16 1007.8
20260509155047 87 303 0.0 1.7 0.00 0.00 0.00 16 1007.8
20260509154553 87 169 0.0 1.7 0.00 0.00 0.00 15 1007.8
20260509154047 86 146 0.0 1.7 0.00 0.00 0.00 16 1007.8
20260509153544 86 119 0.0 1.7 0.00 0.00 0.00 16 1007.9
20260509153043 85 135 0.0 1.7 0.00 0.00 0.00 16 1007.8
20260509152545 84 152 0.0 1.7 0.00 0.00 0.00 17 1007.8
20260509152041 84 26 0.0 2.6 0.00 0.00 0.00 19 1007.9
20260509151542 83 52 0.0 3.5 0.00 0.00 0.00 17 1007.8
20260509151039 83 46 0.9 4.3 0.00 0.00 0.00 18 1007.8
20260509150537 82 29 1.7 4.3 0.00 0.00 0.00 18 1007.9
20260509150036 82 54 1.7 4.3 0.00 0.00 0.00 17 1007.9
20260509145535 81 40 1.7 4.3 0.00 0.00 0.00 18 1007.8
20260509145034 81 48 0.9 5.2 0.00 0.00 0.00 18 1007.7
20260509144537 80 35 3.5 5.2 0.00 0.00 0.00 18 1007.7
20260509144030 80 53 2.6 6.1 0.00 0.00 0.00 18 1007.7
20260509143530 80 54 2.6 6.1 0.00 0.00 0.00 20 1007.5
20260509143028 79 41 2.6 6.1 0.00 0.00 0.00 18 1007.5
20260509142527 79 46 2.6 7.0 0.00 0.00 0.00 18 1007.5
20260509142026 78 38 2.6 5.2 0.00 0.00 0.00 19 1007.5
20260509141526 78 38 2.6 5.2 0.00 0.00 0.00 18 1007.5
20260509141026 78 59 2.6 5.2 0.00 0.00 0.00 19 1007.4
20260509140524 78 61 2.6 6.1 0.00 0.00 0.00 19 1007.4
20260509140023 77 56 1.7 4.3 0.00 0.00 0.00 19 1007.3
20260509135522 77 65 1.7 4.3 0.00 0.00 0.00 19 1007.3
20260509135024 77 63 0.9 6.1 0.00 0.00 0.00 19 1007.2
20260509134519 77 44 2.6 6.1 0.00 0.00 0.00 20 1007.1
20260509134018 77 69 0.9 3.5 0.00 0.00 0.00 19 1007.0
20260509133517 78 82 0.9 3.5 0.00 0.00 0.00 20 1006.9
20260509133016 78 65 0.9 1.7 0.00 0.00 0.00 22 1006.9
20260509132517 78 334 0.0 1.7 0.00 0.00 0.00 23 1006.8
20260509132013 77 227 0.0 0.0 0.00 0.00 0.00 23 1006.7
20260509131512 77 242 0.0 0.9 0.00 0.00 0.00 22 1006.6
20260509131011 77 250 0.0 3.5 0.00 0.00 0.00 22 1006.6
20260509130510 77 239 0.0 3.5 0.00 0.00 0.00 22 1006.5
20260509130011 77 238 0.0 3.5 0.00 0.00 0.00 22 1006.4
20260509125508 77 251 0.9 3.5 0.00 0.00 0.00 22 1006.4
20260509125007 76 270 0.0 2.6 0.00 0.00 0.00 22 1006.4
20260509124507 76 226 0.0 1.7 0.00 0.00 0.00 22 1006.4
20260509124007 76 216 0.0 1.7 0.00 0.00 0.00 22 1006.3
20260509123506 76 209 0.0 1.7 0.00 0.00 0.00 23 1006.3
20260509123005 76 222 0.0 4.3 0.00 0.00 0.00 22 1006.3
20260509122506 76 219 0.0 4.3 0.00 0.00 0.00 22 1006.2
20260509122005 76 217 0.0 1.7 0.00 0.00 0.00 22 1006.2
20260509121505 76 258 0.0 1.7 0.00 0.00 0.00 23 1006.2
20260509121005 76 226 0.0 1.7 0.00 0.00 0.00 23 1006.1
20260509120507 76 226 0.0 1.7 0.00 0.00 0.00 23 1006.1
20260509120003 76 214 0.0 1.7 0.00 0.00 0.00 22 1006.1
20260509115501 77 203 0.0 1.7 0.00 0.00 0.00 23 1006.0
20260509115000 77 207 0.0 1.7 0.00 0.00 0.00 22 1006.1
20260509114604 78 215 0.0 1.7 0.00 0.00 0.00 22 1006.1
20260509114059 78 267 0.0 1.7 0.00 0.00 0.00 22 1006.2
20260509113558 78 199 0.0 1.7 0.00 0.00 0.00 21 1006.2